[[{"header":{"parameterUnit":"m.s-1","parameterCategory":1,"la1":30.2991,"la2":30.254,"lo1":-89.0895,"lo2":-89.0444,"dy":0.0017,"dx":0.0017,"nx":28,"ny":28,"refTime":"2024-06-11T03:00:00:Z","depth":0,"parameterNumber":2,"parameterNumberName":"U-component_of_WINDS"},"data":[0,0,0,0,0,0,0,0,0,0,0,0,0,0,0,0,0,0,0,0,0,0,0,0,0,0,0,0,0,0,0,0,0,0,0,0,0,0,0,0,0,0,0,0,0,0,0,0,0,0,0,0,0,0,0,0,0,0,0.6704,0.6704,0,0.672,0.672,0.672,0.6764,0.6765,0.6766,0.6766,0.6781,0.678,0.678,0,0,0,0,0,0,0,0,0,0,0,0,0,0.6708,0.6708,0.6704,0.6704,0.6704,0.672,0.672,0.672,0.6764,0.6765,0.6766,0.6767,0.6781,0.6781,0.678,0,0,0,0,0,0,0,0,0,0,0,0,0,0.6714,0.6708,0.6704,0.6728,0.673,0.672,0.672,0.672,0.6763,0.6765,0.6766,0.6767,0.6781,0.6781,0.678,0.6747,0,0,0.6778,0.6777,0,0,0,0,0,0,0,0,0.6713,0.6713,0.6724,0.6726,0.6729,0.6741,0.6727,0.6729,0.6763,0.6751,0.6767,0.6768,0.6766,0.6767,0.6767,0.6748,0.6748,0.6778,0.6777,0.6777,0.6777,0,0,0,0,0,0,0,0.6713,0.6713,0.671,0.6724,0.6727,0.6737,0.6739,0.6728,0.675,0.6752,0.6755,0.6756,0.6768,0.6767,0.6768,0.6748,0.6778,0.6777,0.6776,0.6776,0.6702,0.67,0,0,0,0,0,0,0.6709,0.6712,0.6709,0.671,0.6724,0.6736,0.6738,0.6736,0.6751,0.6754,0.6755,0.6758,0.6768,0.6768,0.6768,0.673,0.6777,0.6776,0.6776,0.6703,0.6702,0.67,0,0,0,0,0,0,0.6709,0.6709,0.6709,0.6712,0.6713,0.6734,0.6731,0.6735,0.6735,0.6753,0.6757,0.6751,0.6769,0.6769,0.6752,0.6731,0.6776,0.6775,0.6705,0.6703,0.6701,0.6653,0,0,0,0,0,0,0.6709,0.6708,0.6696,0.6712,0.6713,0.6692,0.673,0.6735,0.6734,0.6738,0.675,0.6753,0.677,0.6753,0.6751,0.6731,0.6774,0.6707,0.6704,0.6701,0.6656,0.6649,0.6643,0,0,0,0,0,0.6709,0.6682,0.6696,0.6695,0.6698,0.6691,0.6692,0.6712,0.6732,0.672,0.6731,0.6753,0.6734,0.6751,0.6749,0.6728,0.6709,0.6705,0.6702,0.6659,0.665,0.6643,0,0,0,0,0,0,0.6663,0.6684,0.67,0.6677,0.6682,0.6699,0.6684,0.6703,0.6702,0.6706,0.6731,0.6733,0.6712,0.6719,0.6737,0.6696,0.6725,0.6721,0.6693,0.6685,0.6678,0.6676,0.6774,0,0,0,0,0,0.665,0.6643,0.6662,0.664,0.6642,0.6662,0.666,0.6676,0.6682,0.6684,0.6695,0.6699,0.6694,0.669,0.6686,0.6658,0.666,0.6643,0.6636,0.663,0.6626,0.661,0.6602,0.6689,0.6689,0.6689,0,0,0.6624,0.6635,0.6629,0.6631,0.6637,0.6628,0.6664,0.6654,0.6647,0.6682,0.6666,0.6674,0.6681,0.6657,0.6647,0.6662,0.6603,0.6626,0.6621,0.662,0.6606,0.6598,0.659,0.6686,0.6687,0.6687,0,0,0.6571,0.6579,0.6561,0.6566,0.6574,0.6588,0.6584,0.6598,0.6604,0.6589,0.6615,0.6607,0.6598,0.6602,0.6602,0.655,0.6569,0.6548,0.6513,0.6497,0.649,0.6484,0.6464,0.6457,0.6545,0.6544,0.6544,0,0.6536,0.6525,0.6549,0.6537,0.6536,0.6569,0.655,0.6554,0.656,0.6559,0.6576,0.6565,0.6572,0.6549,0.6536,0.6536,0.6531,0.6546,0.649,0.6484,0.6479,0.646,0.6452,0.6542,0.6542,0.6542,0.6543,0,0.6481,0.6473,0.6457,0.6463,0.6462,0.6446,0.6467,0.6463,0.6479,0.649,0.6473,0.6483,0.6481,0.6478,0.6493,0.6456,0.6465,0.6485,0.6514,0.6467,0.645,0.6443,0.6538,0.6539,0.654,0.654,0,0,0.6398,0.6418,0.6412,0.6414,0.6426,0.642,0.6406,0.6405,0.64,0.6404,0.6391,0.6383,0.6402,0.6402,0.6418,0.6405,0.6361,0.6426,0.6427,0.6413,0.632,0.6303,0.6295,0.6375,0.6373,0.6372,0.6319,0,0.6346,0.6324,0.6345,0.6318,0.631,0.6341,0.6328,0.6333,0.6344,0.6338,0.635,0.6343,0.6369,0.637,0.6358,0.6369,0.6343,0.6373,0.6362,0.6361,0.6358,0.6286,0.6269,0.6218,0.6312,0.6311,0.6311,0,0.6283,0.6284,0.6256,0.6269,0.6267,0.6255,0.6256,0.625,0.6257,0.6265,0.6266,0.6286,0.6272,0.6301,0.6281,0.6302,0.6299,0.6303,0.6302,0.63,0.6332,0.6281,0.6202,0.6194,0.63,0.6301,0.6302,0,0.6223,0.6218,0.62,0.6202,0.6217,0.6208,0.6214,0.6222,0.622,0.622,0.6219,0.6218,0.6216,0.6215,0.6233,0.6253,0.621,0.6241,0.6216,0.6215,0.6204,0.6204,0.6122,0.6205,0.6205,0.6205,0.6205,0,0.6162,0.6143,0.6173,0.6162,0.6141,0.6166,0.6145,0.6154,0.6161,0.6152,0.6179,0.6169,0.6195,0.6188,0.6202,0.6183,0.6182,0.6188,0.6192,0.6185,0.6184,0.6182,0.6185,0.6203,0.6204,0.6204,0.6204,0,0.6091,0.611,0.6093,0.6109,0.6113,0.6097,0.6111,0.61,0.6114,0.6101,0.6099,0.6119,0.6112,0.6131,0.6127,0.6136,0.6108,0.6118,0.6106,0.6108,0.6081,0.6082,0.5993,0.5982,0.6073,0.6072,0.6072,0,0.605,0.6036,0.6051,0.6047,0.6052,0.6045,0.6043,0.6067,0.6064,0.607,0.6059,0.6054,0.6052,0.6039,0.6052,0.6049,0.6058,0.6027,0.6057,0.605,0.6055,0.6055,0.6053,0.602,0.6019,0.6018,0.6017,0,0.5974,0.5985,0.5981,0.5981,0.5978,0.5979,0.5982,0.5977,0.6002,0.5997,0.5991,0.5989,0.5984,0.5979,0.5978,0.5984,0.6004,0.6008,0.6001,0.5993,0.5985,0.5987,0.6086,0.6009,0.601,0.6011,0.6011,0.6011,0.5916,0.5905,0.5913,0.5909,0.5913,0.5915,0.5906,0.5918,0.5914,0.5912,0.5927,0.5917,0.5923,0.5925,0.5928,0.592,0.5934,0.5925,0.5923,0.592,0.5914,0.5988,0.592,0.5921,0.5921,0.5921,0.5921,0,0.584,0.5848,0.5843,0.5846,0.5842,0.5863,0.5867,0.5862,0.5853,0.5858,0.5855,0.5847,0.5842,0.5855,0.5851,0.5842,0.5851,0.584,0.584,0.5841,0.5903,0.5908,0.5833,0.5833,0.5833,0.5833,0.5833,0.5833,0.58,0.5782,0.5793,0.5778,0.5785,0.5776,0.5776,0.5778,0.5782,0.5772,0.5768,0.5777,0.5785,0.5782,0.5778,0.5782,0.5779,0.5764,0.5771,0.5828,0.5837,0.5845,0.585,0.5764,0.5763,0.5709,0.5709,0.5708]},{"header":{"parameterUnit":"m.s-1","parameterCategory":1,"la1":30.2991,"la2":30.254,"lo1":-89.0895,"lo2":-89.0444,"dy":0.0017,"dx":0.0017,"nx":28,"ny":28,"refTime":"2024-06-11T03:00:00:Z","depth":0,"parameterNumber":3,"parameterNumberName":"V-component_of_WINDS"},"data":[0,0,0,0,0,0,0,0,0,0,0,0,0,0,0,0,0,0,0,0,0,0,0,0,0,0,0,0,0,0,0,0,0,0,0,0,0,0,0,0,0,0,0,0,0,0,0,0,0,0,0,0,0,0,0,0,0,0,0.5598,0.5598,0,0.5586,0.5586,0.5586,0.5573,0.5573,0.5572,0.5572,0.556,0.556,0.556,0,0,0,0,0,0,0,0,0,0,0,0,0,0.5607,0.5607,0.5598,0.5598,0.5598,0.5586,0.5586,0.5586,0.5573,0.5573,0.5572,0.5572,0.556,0.556,0.556,0,0,0,0,0,0,0,0,0,0,0,0,0,0.56,0.5607,0.5598,0.559,0.5589,0.5586,0.5586,0.5586,0.5573,0.5573,0.5572,0.5572,0.556,0.556,0.556,0.5565,0,0,0.5559,0.5559,0,0,0,0,0,0,0,0,0.56,0.56,0.5591,0.559,0.5589,0.5581,0.5585,0.5579,0.5573,0.5579,0.5572,0.5572,0.5567,0.5566,0.5565,0.5564,0.5564,0.5559,0.5559,0.5559,0.5559,0,0,0,0,0,0,0,0.5601,0.56,0.5593,0.5591,0.559,0.5586,0.5585,0.5584,0.5575,0.5578,0.5577,0.5576,0.5567,0.5565,0.5565,0.5563,0.5559,0.5559,0.5559,0.5559,0.5565,0.5565,0,0,0,0,0,0,0.5603,0.56,0.5594,0.5593,0.5594,0.5586,0.5585,0.5584,0.5575,0.5573,0.5577,0.5576,0.5566,0.5565,0.5564,0.5568,0.5559,0.5559,0.5559,0.5564,0.5565,0.5565,0,0,0,0,0,0,0.5603,0.5602,0.5594,0.5596,0.5595,0.5586,0.5585,0.5584,0.5582,0.5573,0.5572,0.5577,0.5565,0.5564,0.5564,0.5568,0.5559,0.5559,0.5564,0.5564,0.5565,0.5578,0,0,0,0,0,0,0.5603,0.5602,0.5604,0.5597,0.5595,0.5595,0.5586,0.5584,0.5582,0.5581,0.5573,0.5572,0.5565,0.5565,0.5564,0.5567,0.5558,0.5564,0.5564,0.5565,0.5577,0.5578,0.558,0,0,0,0,0,0.5604,0.5609,0.5605,0.5604,0.5598,0.5595,0.5594,0.5587,0.5582,0.5584,0.5578,0.5572,0.5568,0.5565,0.5564,0.5567,0.5563,0.5564,0.5565,0.5576,0.5578,0.558,0,0,0,0,0,0,0.5617,0.5608,0.5603,0.5606,0.5601,0.5593,0.5595,0.5589,0.5586,0.5585,0.5576,0.5574,0.5575,0.5571,0.5568,0.5571,0.5564,0.5565,0.5574,0.5575,0.5577,0.5578,0.5558,0,0,0,0,0,0.5621,0.562,0.5611,0.5615,0.5613,0.5604,0.5603,0.5597,0.5593,0.5591,0.5585,0.558,0.5578,0.5576,0.5573,0.5576,0.5574,0.5578,0.5579,0.5581,0.5581,0.5581,0.5583,0.5567,0.5567,0.5567,0,0,0.5628,0.5622,0.5622,0.5617,0.5613,0.5612,0.5603,0.5602,0.5601,0.5591,0.559,0.5586,0.558,0.5581,0.5581,0.5578,0.5585,0.5581,0.5582,0.5582,0.5582,0.5583,0.5585,0.5567,0.5567,0.5567,0,0,0.564,0.5636,0.5638,0.5634,0.5628,0.5622,0.5622,0.5615,0.5611,0.5611,0.5602,0.56,0.5597,0.5592,0.559,0.5599,0.5593,0.5598,0.5606,0.5606,0.5607,0.5608,0.5611,0.5612,0.5599,0.5599,0.5599,0,0.5649,0.5648,0.5639,0.5639,0.5637,0.5627,0.5628,0.5625,0.5618,0.5616,0.5612,0.5607,0.5602,0.5601,0.5604,0.5602,0.5602,0.5599,0.5608,0.5609,0.561,0.5612,0.5613,0.5599,0.5599,0.5599,0.5599,0,0.5659,0.5658,0.566,0.5654,0.5652,0.5652,0.5644,0.5642,0.5637,0.5631,0.563,0.5624,0.5619,0.5619,0.5613,0.5617,0.5615,0.561,0.5603,0.5612,0.5614,0.5615,0.56,0.56,0.56,0.56,0,0,0.568,0.5669,0.567,0.5666,0.5658,0.5657,0.5657,0.5652,0.5651,0.5646,0.5646,0.5642,0.5636,0.5633,0.5627,0.5628,0.5634,0.5622,0.5622,0.5624,0.5637,0.5641,0.5643,0.563,0.563,0.563,0.5638,0,0.5691,0.569,0.5682,0.5683,0.5682,0.5672,0.5671,0.5666,0.5661,0.5658,0.5652,0.5649,0.5643,0.564,0.564,0.5634,0.5637,0.5633,0.5629,0.5629,0.563,0.5644,0.5648,0.5656,0.5638,0.5639,0.5639,0,0.5703,0.5699,0.57,0.5691,0.569,0.569,0.5685,0.5683,0.5676,0.5672,0.5668,0.5661,0.5659,0.5653,0.565,0.5648,0.5645,0.5642,0.5642,0.5641,0.5634,0.5643,0.5658,0.5659,0.564,0.564,0.564,0,0.5718,0.5713,0.5713,0.571,0.57,0.57,0.5695,0.5689,0.5686,0.5681,0.5679,0.5674,0.5671,0.5667,0.5659,0.5655,0.5657,0.565,0.5653,0.5653,0.5654,0.5654,0.5668,0.5652,0.5652,0.5652,0.5652,0,0.5731,0.5732,0.5719,0.5719,0.5719,0.571,0.571,0.5705,0.5699,0.5697,0.5688,0.5686,0.5675,0.5672,0.5665,0.5663,0.5662,0.5658,0.5656,0.5659,0.5659,0.5657,0.5656,0.5653,0.5652,0.5652,0.5652,0,0.5747,0.5739,0.5738,0.5728,0.5726,0.5726,0.5718,0.5717,0.571,0.5708,0.5707,0.5697,0.5692,0.5683,0.5677,0.5672,0.5672,0.5668,0.5674,0.5673,0.5676,0.5676,0.5689,0.569,0.5674,0.5675,0.5675,0,0.5756,0.5756,0.5746,0.5745,0.5741,0.5738,0.5735,0.5725,0.5722,0.5714,0.5714,0.5709,0.5705,0.5698,0.569,0.5684,0.5681,0.5686,0.568,0.5682,0.568,0.568,0.568,0.5687,0.5687,0.5687,0.5688,0,0.5772,0.5767,0.5764,0.5759,0.5755,0.5751,0.5746,0.5744,0.5733,0.573,0.5726,0.5722,0.5715,0.571,0.5703,0.5698,0.5691,0.5689,0.569,0.5692,0.5695,0.5693,0.5677,0.5689,0.5689,0.5689,0.5689,0.5689,0.5785,0.5784,0.5777,0.5773,0.5768,0.5763,0.5761,0.5754,0.5751,0.5744,0.5738,0.5734,0.5726,0.5716,0.5711,0.5707,0.5704,0.5704,0.5705,0.5705,0.5706,0.5696,0.5706,0.5706,0.5706,0.5706,0.5706,0,0.58,0.5794,0.5791,0.5783,0.578,0.5774,0.5767,0.5765,0.5761,0.5755,0.575,0.5744,0.5739,0.573,0.5723,0.5722,0.5718,0.572,0.572,0.5719,0.5709,0.571,0.5723,0.5723,0.5723,0.5723,0.5723,0.5723,0.5807,0.5806,0.58,0.5796,0.5791,0.5787,0.5783,0.5778,0.5773,0.5767,0.5762,0.5757,0.5749,0.5741,0.5736,0.5733,0.5731,0.5734,0.5731,0.5722,0.572,0.5718,0.5719,0.5734,0.5734,0.5741,0.5741,0.5741]}]]